Regional Weather Roundup
Issued by NWS Sioux Falls, SD

Home | Current Version | Previous Version | Graphics & Text | Print | Product List | Glossary Off
Versions: 1 2 3 4 5 6 7 8 9 10 11 12 13 14 15 16 17 18 19 20 21 22 23 24 25 26 27 28 29 30 31 32 33 34 35 36 37 38 39 40 41 42 43 44 45 46 47 48 49 50

000
ASUS43 KFSD 310210
RWRFSD

WEATHER ROUNDUP FOR SE SOUTH DAKOTA/SW MINNESOTA/NW IOWA
NATIONAL WEATHER SERVICE SIOUX FALLS SD
800 PM CST FRI JAN 30 2015

NOTE: "FAIR" INDICATES FEW OR NO CLOUDS BELOW 12,000 FEET WITH NO
SIGNIFICANT WEATHER AND OR OBSTRUCTIONS TO VISIBILITY.


SDZ038>040-050-052>070-310300-
SOUTHEAST SOUTH DAKOTA

CITY           SKY/WX    TMP DP  RH WIND       PRES   REMARKS
CHAMBERLAIN    PTCLDY    31  24  77 CALM      30.13R
HURON          CLEAR     26  23  88 N3        30.15R
MADISON        FAIR      32  32 100 S8        30.15S WCI  25
MITCHELL       CLEAR     38  28  67 S10       30.14F
SIOUX FALLS    PTCLDY    34  28  79 S10       30.17F WCI  26
WINNER         FAIR      39  25  57 W3        30.14R
YANKTON        CLEAR     37  27  65 S7        30.20S
$$

MNZ071-072-080-081-089-090-097-098-310300-
SOUTHWEST MINNESOTA

CITY           SKY/WX    TMP DP  RH WIND       PRES   REMARKS
FAIRMONT       CLEAR     28  21  74 S15       30.19F WCI  17
JACKSON        CLEAR     32  27  80 S15       30.18F WCI  22
LUVERNE        CLEAR     32  28  86 S8        30.19F WCI  25
MARSHALL       CLEAR     30  25  80 S9        30.17S WCI  22
MONTEVIDEO     CLEAR     28  27  93 SW3       30.17S
PIPESTONE      CLEAR     32  28  86 SW13      30.15S WCI  22
REDWOOD FALLS  CLEAR     29  25  85 S8        30.18F WCI  21
TRACY          CLEAR     32  28  85 SW17      30.15F WCI  21
WINDOM         CLEAR     30  27  86 SW15      30.17S WCI  19
WORTHINGTON    CLEAR     30  25  80 SW23      30.17F WCI  17
$$

IAZ001>003-012>014-020>022-031-032-NEZ013-014-SDZ071-310300-
NORTHWEST IOWA

CITY           SKY/WX    TMP DP  RH WIND       PRES   REMARKS
CHEROKEE       CLEAR     30  26  83 S9        30.23S WCI  22
DENISON        CLEAR     30  25  80 S13G20    30.25F WCI  20
ESTHERVILLE    CLEAR     30  24  78 S17       30.19F WCI  18
LE MARS        CLEAR     32  27  80 S10       30.23R WCI  24
ORANGE CITY    CLEAR     30  25  80 S7        30.22R WCI  23
SHELDON        CLEAR     30  27  86 S14       30.20R WCI  20
SIOUX CITY     CLEAR     32  25  75 SE8       30.24F WCI  25
SPENCER        CLEAR     30  24  78 S12       30.21F WCI  20
STORM LAKE     FAIR      28  25  86 S17       30.22F WCI  16
$$

ABBREVIATIONS USED IN REMARKS
   TC - TEMPERATURE IN CELSIUS
  WCI - WIND CHILL INDEX
   HX - HEAT INDEX
  VSB - VISIBILITY




USA.gov is the U.S. government's official web portal to all federal, state and local government web resources and services.